Location: *
(45.4590°N, 16.3650°E)
Time: 12:57:59
(UTC+00:00)

Cosmos 2184 Rocket - Pass Details

Date: 17 January 2020
Orbit: 959 x 1002 km, 82.9° (Epoch: 16 February)

Event Time Altitude Azimuth Distance (km) Brightness Sun altitude
Rises 16:32:35 0° 180° (S) 3,650 7.3 -9.3°
Reaches altitude 10° 16:35:05 10° 178° (S) 2,702 6.6 -9.7°
Maximum altitude 16:41:15 74° 95° (E) 1,005 3.9 -10.7°
Drops below altitude 10° 16:47:24 10° 12° (NNE) 2,704 6.0 -11.7°
Sets 16:49:54 0° 11° (N) 3,653 6.7 -12.2°
